Weather History for Jacksonville, FL

Change the Weather History Date:

Monday, January 28, 2013

  Actual Average Record
Temperature  
Mean Temperature 64 °F 54 °F  
Max Temperature 77 °F 66 °F 83 °F (1957)
Min Temperature 50 °F 42 °F 16 °F (1986)
Degree Days  
Heating Degree Days 1 12  
Month to date heating degree days 164 349  
Since 1 July heating degree days 640 845  
Cooling Degree Days 0 0  
Month to date cooling degree days 33 0  
Year to date cooling degree days 33 0  
Growing Degree Days 14 (Base 50)    
Moisture  
Dew Point 57 °F    
Average Humidity 77    
Maximum Humidity 96    
Minimum Humidity 57    
Precipitation  
Precipitation 0.00 in 0.12 in 2.06 in (1973)
Month to date precipitation 0.82 2.96  
Year to date precipitation 0.82 2.96  
Snow  
Snow 0.00 in 0.00 in 0.00 in (2002)
Month to date snowfall 0.0 0.0  
Since 1 July snowfall 0.0 T  
Snow Depth 0.00 in    
Sea Level Pressure  
Sea Level Pressure 30.33 in    
Wind  
Wind Speed 5 mph (East)    
Max Wind Speed 16 mph    
Max Gust Speed 18 mph    
Visibility 8 miles    
Events      
T = Trace of Precipitation, MM = Missing Value Source: NWS Daily Summary

Daily Weather History Graph

Daily Weather History Graph

Search for Another Location

Airport:

Trip Planner

Search our weather history database for the weather conditions in past years. The results will help you decide how hot, cold, wet, or windy it might be!

Date:

Astronomy

Jan. 28, 2013 Rise Set
Actual Time 7:19 AM EST 5:59 PM EST
Civil Twilight 6:54 AM EST 6:25 PM EST
Nautical Twilight 6:25 AM EST 6:54 PM EST
Astronomical Twilight 5:57 AM EST 7:22 PM EST
Moon 7:41 PM EST (1/28) 7:54 AM EST (1/28)
Length of Visible Light 11h 30m
Length of Day
10h 40m
Full, 98% of the Moon is Illuminated
Jan 28
Full
Feb 3
Last Quarter
Feb 10
New
Feb 17
First Quarter
Feb 25
Full

Hourly Weather History & Observations

Time (EST) Temp. Dew Point Humidity Pressure Visibility Wind Dir Wind Speed Gust Speed Precip Events Conditions
12:56 AM 57.9 °F 55.0 °F 90% 30.37 in 7.0 mi NNE 6.9 mph - N/A   Overcast
1:56 AM 57.9 °F 55.0 °F 90% 30.36 in 7.0 mi NE 5.8 mph - N/A   Overcast
2:52 AM 57.2 °F 55.4 °F 94% 30.35 in 7.0 mi NE 3.5 mph - N/A   Overcast
2:56 AM 57.0 °F 55.0 °F 93% 30.35 in 7.0 mi Calm Calm - N/A   Overcast
3:56 AM 55.0 °F 53.1 °F 93% 30.34 in 7.0 mi Calm Calm - N/A   Mostly Cloudy
4:56 AM 53.6 °F 51.8 °F 94% 30.34 in 5.0 mi Calm Calm - N/A   Scattered Clouds
5:56 AM 52.0 °F 50.0 °F 93% 30.34 in 3.0 mi Calm Calm - N/A   Scattered Clouds
6:56 AM 52.0 °F 50.0 °F 93% 30.36 in 5.0 mi Calm Calm - N/A   Scattered Clouds
7:56 AM 54.0 °F 52.0 °F 93% 30.37 in 3.0 mi Calm Calm - N/A   Scattered Clouds
8:56 AM 57.9 °F 55.0 °F 90% 30.38 in 5.0 mi North 3.5 mph - N/A   Mostly Cloudy
9:56 AM 66.0 °F 57.0 °F 73% 30.39 in 10.0 mi Calm Calm - N/A   Mostly Cloudy
10:56 AM 73.0 °F 57.9 °F 59% 30.38 in 10.0 mi SE 9.2 mph - N/A   Scattered Clouds
11:56 AM 75.2 °F 59.0 °F 57% 30.36 in 10.0 mi SE 9.2 mph - N/A   Mostly Cloudy
12:56 PM 75.0 °F 60.1 °F 60% 30.32 in 10.0 mi East 10.4 mph - N/A   Mostly Cloudy
1:56 PM 75.9 °F 61.0 °F 60% 30.29 in 10.0 mi ESE 10.4 mph - N/A   Scattered Clouds
2:56 PM 75.0 °F 59.0 °F 57% 30.28 in 10.0 mi ESE 10.4 mph - N/A   Mostly Cloudy
3:56 PM 75.0 °F 59.0 °F 57% 30.27 in 10.0 mi ESE 11.5 mph - N/A   Mostly Cloudy
4:56 PM 71.1 °F 60.1 °F 68% 30.28 in 10.0 mi East 10.4 mph - N/A   Mostly Cloudy
5:56 PM 69.1 °F 60.1 °F 73% 30.28 in 10.0 mi ESE 5.8 mph - N/A   Mostly Cloudy
6:56 PM 66.0 °F 61.0 °F 84% 30.29 in 10.0 mi East 4.6 mph - N/A   Overcast
7:56 PM 64.9 °F 60.1 °F 84% 30.30 in 10.0 mi NE 5.8 mph - N/A   Overcast
8:56 PM 64.0 °F 60.1 °F 87% 30.30 in 10.0 mi ENE 4.6 mph - N/A   Overcast
9:56 PM 62.1 °F 59.0 °F 90% 30.30 in 9.0 mi East 4.6 mph - N/A   Mostly Cloudy
10:56 PM 62.1 °F 59.0 °F 90% 30.29 in 9.0 mi Calm Calm - N/A   Mostly Cloudy
11:56 PM 63.0 °F 60.1 °F 90% 30.28 in 9.0 mi Calm Calm - N/A   Mostly Cloudy